Gallup, NM

11:45 AM MST on November 23, 2017 (GMT -0700)
Gallup Municipal

Weather History for KGUP - August, 2013

Change the Weather History Date:

Saturday, August 31, 2013

  Actual Average Record
Temperature  
Mean Temperature 72 °F -  
Max Temperature 87 °F 80 °F 91 °F (2011)
Min Temperature 57 °F 48 °F 40 °F (1975)
Cooling Degree Days 6    
Growing Degree Days 22 (Base 50)    
Moisture  
Dew Point 53 °F    
Average Humidity 61    
Maximum Humidity 93    
Minimum Humidity 20    
Precipitation  
Precipitation 0.00 in - - ()
Sea Level Pressure  
Sea Level Pressure 29.77 in    
Wind  
Wind Speed 6 mph (SW)    
Max Wind Speed 16 mph    
Max Gust Speed 20 mph    
Visibility 10 miles    
Events      
Averages and records for this station are not official NWS values.
T = Trace of Precipitation, MM = Missing Value Source: NWS Daily Summary

Daily Weather History Graph

Daily Weather History Graph

Search for Another Location

Airport or City:

Trip Planner

Search our weather history database for the weather conditions in past years. The results will help you decide how hot, cold, wet, or windy it might be!

Date:

Astronomy

Aug. 31, 2013 Rise Set
Actual Time 6:46 AM MDT 7:43 PM MDT
Civil Twilight 6:20 AM MDT 8:09 PM MDT
Nautical Twilight 5:49 AM MDT 8:40 PM MDT
Astronomical Twilight 5:18 AM MDT 9:11 PM MDT
Moon 2:24 AM MDT (8/31) 4:38 PM MDT (8/31)
Length of Visible Light 13h 48m
Length of Day
12h 56m
Waning Crescent, 20% of the Moon is Illuminated
Aug 31
Waning Crescent
Sep 5
New
Sep 12
First Quarter
Sep 19
Full
Sep 26
Last Quarter

Hourly Weather History & Observations

Time (MDT) Temp. Heat Index Dew Point Humidity Pressure Visibility Wind Dir Wind Speed Gust Speed Precip Events Conditions
12:53 AM 64.0 °F - 55.9 °F 75% 29.81 in 10.0 mi SSW 8.1 mph - N/A   Clear
1:53 AM 62.1 °F - 57.0 °F 84% 29.80 in 10.0 mi SSW 5.8 mph - N/A   Clear
2:53 AM 60.1 °F - 55.9 °F 86% 29.80 in 10.0 mi SSW 4.6 mph - N/A   Clear
3:53 AM 60.1 °F - 55.9 °F 86% 29.78 in 10.0 mi Calm Calm - N/A   Clear
4:53 AM 57.9 °F - 55.0 °F 90% 29.80 in 10.0 mi Calm Calm - N/A   Clear
5:53 AM 57.9 °F - 55.9 °F 93% 29.81 in 10.0 mi Calm Calm - N/A   Clear
6:53 AM 57.9 °F - 55.0 °F 90% 29.82 in 10.0 mi Calm Calm - N/A   Clear
7:53 AM 59.0 °F - 55.9 °F 90% 29.86 in 10.0 mi SW 4.6 mph - N/A   Mostly Cloudy
8:53 AM 61.0 °F - 57.9 °F 90% 29.88 in 10.0 mi WSW 6.9 mph - N/A   Overcast
9:53 AM 64.9 °F - 57.9 °F 78% 29.86 in 10.0 mi South 8.1 mph - N/A   Scattered Clouds
10:53 AM 72.0 °F - 57.9 °F 61% 29.82 in 10.0 mi SSW 5.8 mph - N/A   Clear
11:53 AM 75.0 °F - 55.0 °F 50% 29.80 in 10.0 mi Calm Calm - N/A   Clear
12:53 PM 80.1 °F 79.9 °F 53.1 °F 39% 29.74 in 10.0 mi Calm Calm - N/A   Clear
1:53 PM 82.0 °F 81.2 °F 53.1 °F 37% 29.72 in 10.0 mi SSW 9.2 mph - N/A   Clear
2:53 PM 84.9 °F - 48.9 °F 29% 29.68 in 10.0 mi South 11.5 mph - N/A   Partly Cloudy
3:53 PM 84.9 °F - 42.1 °F 22% 29.65 in 10.0 mi SSW 9.2 mph - N/A   Clear
4:53 PM 86.0 °F - 41.0 °F 20% 29.65 in 10.0 mi SSW 15.0 mph 19.6 mph N/A   Clear
5:53 PM 84.9 °F - 48.0 °F 28% 29.64 in 10.0 mi SW 12.7 mph - N/A   Clear
6:53 PM 82.0 °F - 50.0 °F 33% 29.68 in 10.0 mi WSW 16.1 mph - N/A   Clear
7:53 PM 77.0 °F - 50.0 °F 39% 29.73 in 10.0 mi WSW 9.2 mph - N/A   Clear
8:53 PM 73.0 °F - 55.9 °F 55% 29.77 in 10.0 mi West 10.4 mph - N/A   Clear
9:53 PM 69.1 °F - 55.0 °F 61% 29.78 in 10.0 mi WSW 6.9 mph - N/A   Clear
10:53 PM 66.0 °F - 55.0 °F 68% 29.76 in 10.0 mi SSW 5.8 mph - N/A   Clear
11:53 PM 66.0 °F - 55.9 °F 70% 29.75 in 10.0 mi SW 6.9 mph - N/A   Clear